Погода Соловецкие Острова

Хотите узнать прогноз погоды Соловецкие Острова? Тогда Вам сюда: Погода Соловецкие Острова

Поиск расширенной информации на нашем сайте:

Полезная информация:

Новости сайта



02.01.2020
Опубликован Долгосрочный прогноз погоды по городам России и ближнего зарубежья на январь 2020 года.
Карты: Прогноз на январь и февраль 2020 года, Сравнение прогнозируемой аномалии приземной температуры воздуха на январь 2020 года по разным моделям.




Погода Соловецкие Острова - сегодня

Время (UTC), дата Ветер
(°,м/с) 
Видим.   Явления Облачность Т
(°С)
Тd
(°С)
f(%) Тe
(°С)
Pmin
(гПа)
dP
(гПа)
Po
(мм)
O2
(г/м3)
Тmin Tmax R s Состояние
почвы
15 29.11.20 190 (Ю) 20000 м    9/9 660 м 
[Sc]
-1.9 -3.2 91 -6  1033.5  -0.6  774  315    -1.9  0.2     
18 29.11.20 180 (Ю) 7{10}  20000 м    9/9 360 м 
[Sc]
-1.9 -2.9 93 -6  1032.7  -0.8  774  314           
21 29.11.20 200 (Ю) 4{10}  20000 м    10/10 600 м 
[Sc]
-1.6 -3.6 86 -4  1032.1  -0.7  773  314           
00 30.11.20 200 (Ю) 5{10}  20000 м    9/9 450 м 
[Sc]
-1.3 -2.9 89 -5  1030.7  -1.3  772  313           
03 30.11.20 200 (Ю) 5{11}  20000 м    9/9 420 м 
[Sc]
-1.2 -2.7 90 -4  1029.3  -1.5  771  312  -2      равномерный
мокрый или
старый снег
100% 
06 30.11.20 170 (Ю) 5{10}  20000 м    10/10 270 м 
[St]
-1.9 -2.8 94 -5  1028.4  -0.9  771  313           
09 30.11.20 170 (Ю) 30000 м    10/10 240 м 
[St]
-1.7 -2.3 96 -5  1027.2  -1.2  770  312           
12 30.11.20 170 (Ю) 5{10}  30000 м    10/10 240 м 
[St]
-0.7 -1.3 96 -4  1025  -2.2  768  310           
15 30.11.20 170 (Ю) 7-10{11}  20000 м    10/10 330 м 
[Sc]
+0.2 -0.7 94 -4  1023  -1.9  767  309    +0.2       
18 30.11.20 170 (Ю) 6{11}  20000 м    10/10 240 м 
[St]
+0.5 -0.1 96 -3  1021.3  -1.7  765  308           
21 30.11.20 160 (Ю) 20000 м    10/10 240 м 
[St]
+0.9 +0.4 96 -2  1019.5  -1.8  764  307           
00 01.12.20 150 (ЮВ) 4{11}  4000 м  слаб. ливневой дождь  10/10 210 м кучево-дожд. 
[Cb cap]
+0.4 +0.3 99 -2  1017.6  -1.9  763  307           
03 01.12.20 170 (Ю) 9-12{12}  20000 м  в посл. час ливневой снег  10/10 450 м кучево-дожд. 
[Cb cap]
+0.9 +0.9 100 -3  1015.7  -1.9  761  306  +0.1    равномерный
мокрый или
старый снег
100% 
06 01.12.20 210 (ЮЗ) 8-12{13}  20000 м  {ливн. осадки}  9/9 300 м кучево-дожд. 
[Cb cap]
+1.3 +0.4 94 -3  1015.9  0.2  761  305           
09 01.12.20 200 (Ю) 7-12{13}  30000 м    3/1 300 м кучево-дожд., средняя, верхняя 
[Cb cap|Ac lent|Ci fib]
+0.5 -2 83 -3  1017.1  1.2  762  307           
12 01.12.20 200 (Ю) 6-12{12}  30000 м    8/4 570 м верхняя 
[Cu Sc|Cs]
+0.4 -1.5 87 -3  1017  -0.1  762  307           
15 01.12.20 190 (Ю) 7-11{13}  20000 м    9/3 300 м верхняя 
[Cu hum|Cs]
+0.4 -1.7 86 -3  1017  762  307    +1.3       
18 01.12.20 180 (Ю) 8-11{13}  4000 м  слаб. ливневой снег  9/9 420 м кучево-дожд. 
[Cb cap]
+0.4 -0.7 92 -4  1016.8  -0.2  762  307           
21 01.12.20 200 (Ю) 4{11}  4000 м  слаб. ливневой снег  10/10 270 м кучево-дожд. 
[Cb cap]
+0.2 +0.2 100 -2  1017  0.1  762  307           
00 02.12.20 280 (З) 20000 м  {ливн. осадки}  10/10 450 м 
[Cu Sc]
-0.4 -1.1 95 -2  1019.3  2.3  764  308           
03 02.12.20 260 (З) 20000 м    10/10 1170 м 
[Cu Sc]
+0.1 -0.8 94 -2  1021.5  2.3  765  308  -0.4    0.7  равномерный
мокрый или
старый снег
100% 
06 02.12.20 250 (З) 20000 м    9/8 900 м средняя 
[Sc|Ac As]
+0.7 -1.1 88 -3  1023.3  1.8  767  308           
09 02.12.20 250 (З) 6{10}  30000 м    9/8 630 м средняя 
[Sc|Ac As]
+0.1 -1.5 89 -3  1024.6  1.3  768  309           
12 02.12.20 230 (ЮЗ) 5{10}  30000 м  {ливн. осадки}  9/9 420 м 
[Sc]
-0.8 -2 92 -4  1025.2  0.5  768  311           
15 02.12.20 230 (ЮЗ) 5{10}  20000 м    9/9 540 м 
[Sc]
-1.1 -2.7 89 -4  1025.6  0.4  768  311    +0.8  0.0     
Время (UTC), дата Ветер
(°,м/с) 
Видим.   Явления Облачность Т
(°С)
Тd
(°С)
f(%) Тe
(°С)
Pmin
(гПа)
dP
(гПа)
Po
(мм)
O2
(г/м3)
Тmin Tmax R s Состояние
почвы

Для получения пояснительной информации подведите курсор к названию столбца.

ПОГОДА Соловецкие Острова - архив

Всё, что Вы хотите узнать о погоде Соловецкие Острова - удобно и подробно!

Выберите нужную дату (начиная с 1 января 2019* года) и нажмите кнопку "Найти".
Будут отображены архивные сводки погоды по пункту Соловецкие Острова, начиная с указанной даты.


Отображать данные в формате CSV (для использования в таблицах Excel)


Внимание! Наш архив погоды предназначен исключительно для личного некоммерческого использования в познавательных целях. Если Вам необходимы официальные справки о состоянии погоды (для производственных, юридических, коммерческих и т.п. целей), обращайтесь в органы Росгидромета.

*Примечание: данная дата относится к архиву по метеостанциям СССР (Россия, СНГ, Балтия).
Архив по метеостанциям Зарубежной Европы и Азии (кроме Китая) хранится 10 дней, по другим регионам земного шара (Китай, Африка, Америка, Австралия, Океания) - 1 день.

Соловецкие Острова - район местоположения метеостанции


Название, широта, долгота, высота метеостанции:
Соловецкие Острова (Кремль) 65°ш. 35.7°д. 7 м над ур. моря [Российская Федерация]

Дополнительная информация

В oтличие oт бoльшинства пoгoдных сайтoв мы публикуем пoдрoбную метеoинфoрмацию в детальнoм прoфессиoнальнoм фoрмате.

Характеристики температуры и влажнoсти вoздуха измеряются на высoте 2 м в тени вдали oт зданий и деревьев.
Скoрoсть ветра измеряется на высoте 10 м (на урoвне рoста челoвека скoрoсть ветра ниже в 1.5-2 раза). Если метеoстанция нахoдится в гoрoде или в лесу, тo скoрoсть ветра занижена на 2-4 м/с пo сравнению с oткрытым местoм. Скoрoсть ветра над акватoриями крупных рек и oзёр, а также на вершинах хoлмoв на 2-5 м/с выше, чем в oбычных услoвиях.
Атмoсфернoе давление в разных тoчках местнoсти мoжет значительнo oтличаться oт давления на метеoстанции, в зависимoсти oт услoвий рельефа (при пoдъёме на 10 м давление пoнижается примернo на 1 мм рт.ст.).